| time (UTC) | temp F | wind direction | speed knots | gust knots | rain 1hr in | rain 24hr in | rain mn in | humidity % | barometer mb |
| 20260508065004 | 51 | 109 | 0.9 | 2.6 | 0.00 | 0.00 | 0.00 | 79 | 1016.9 |
| 20260508064512 | 51 | 144 | 0.9 | 0.9 | 0.00 | 0.00 | 0.00 | 79 | 1017.0 |
| 20260508064003 | 51 | 183 | 0.0 | 1.7 | 0.00 | 0.00 | 0.00 | 80 | 1016.9 |
| 20260508063508 | 50 | 78 | 0.9 | 3.5 | 0.00 | 0.00 | 0.00 | 81 | 1016.9 |
| 20260508063015 | 50 | 132 | 0.9 | 3.5 | 0.00 | 0.00 | 0.00 | 81 | 1016.9 |
| 20260508062507 | 50 | 115 | 0.9 | 2.6 | 0.00 | 0.00 | 0.00 | 81 | 1016.8 |
| 20260508062010 | 50 | 10 | 0.0 | 1.7 | 0.00 | 0.00 | 0.00 | 82 | 1016.8 |
| 20260508061519 | 49 | 105 | 0.0 | 1.7 | 0.00 | 0.00 | 0.00 | 83 | 1016.8 |
| 20260508061005 | 49 | 360 | 0.0 | 1.7 | 0.00 | 0.00 | 0.00 | 83 | 1016.8 |
| 20260508060503 | 49 | 360 | 0.9 | 1.7 | 0.00 | 0.00 | 0.00 | 84 | 1016.7 |
| 20260508060008 | 48 | 360 | 0.0 | 1.7 | 0.00 | 0.00 | 0.00 | 84 | 1016.7 |
| 20260508055504 | 48 | 360 | 0.9 | 1.7 | 0.00 | 0.00 | 0.00 | 85 | 1016.7 |
| 20260508055004 | 47 | 360 | 0.0 | 1.7 | 0.00 | 0.00 | 0.00 | 86 | 1016.7 |
| 20260508054508 | 47 | 360 | 0.0 | 1.7 | 0.00 | 0.00 | 0.00 | 87 | 1016.6 |
| 20260508054005 | 47 | 360 | 0.0 | 1.7 | 0.00 | 0.00 | 0.00 | 87 | 1016.5 |
| 20260508053505 | 46 | 360 | 0.0 | 1.7 | 0.00 | 0.00 | 0.00 | 88 | 1016.5 |
| 20260508053025 | 46 | 360 | 0.0 | 0.0 | 0.00 | 0.00 | 0.00 | 88 | 1016.5 |
| 20260508052510 | 46 | 360 | 0.0 | 0.0 | 0.00 | 0.00 | 0.00 | 88 | 1016.6 |
| 20260508052008 | 46 | 360 | 0.0 | 0.0 | 0.00 | 0.00 | 0.00 | 88 | 1016.5 |
| 20260508051522 | 46 | 360 | 0.0 | 0.0 | 0.00 | 0.00 | 0.00 | 88 | 1016.5 |
| 20260508051009 | 46 | 360 | 0.0 | 0.0 | 0.00 | 0.00 | 0.00 | 88 | 1016.4 |
| 20260508050512 | 46 | 360 | 0.0 | 0.0 | 0.00 | 0.00 | 0.00 | 88 | 1016.3 |
| 20260508050004 | 46 | 360 | 0.0 | 0.0 | 0.00 | 0.00 | 0.00 | 87 | 1016.3 |
| 20260508045503 | 46 | 360 | 0.0 | 0.0 | 0.00 | 0.00 | 0.00 | 88 | 1016.3 |
| 20260508045003 | 46 | 360 | 0.0 | 0.0 | 0.00 | 0.00 | 0.00 | 88 | 1016.2 |
| 20260508044506 | 46 | 360 | 0.0 | 0.0 | 0.00 | 0.00 | 0.00 | 88 | 1016.1 |
| 20260508044004 | 46 | 360 | 0.0 | 0.0 | 0.00 | 0.00 | 0.00 | 88 | 1016.1 |
| 20260508043504 | 46 | 360 | 0.0 | 0.0 | 0.00 | 0.00 | 0.00 | 87 | 1016.1 |
| 20260508043012 | 46 | 360 | 0.0 | 0.0 | 0.00 | 0.00 | 0.00 | 87 | 1016.2 |
| 20260508042506 | 46 | 360 | 0.0 | 0.0 | 0.00 | 0.00 | 0.00 | 87 | 1016.1 |
| 20260508042007 | 46 | 360 | 0.0 | 0.0 | 0.00 | 0.00 | 0.00 | 86 | 1016.1 |
| 20260508041524 | 46 | 360 | 0.0 | 0.0 | 0.00 | 0.00 | 0.00 | 86 | 1016.1 |
| 20260508041007 | 46 | 360 | 0.0 | 0.0 | 0.00 | 0.00 | 0.00 | 86 | 1016.1 |
| 20260508040512 | 46 | 360 | 0.0 | 0.0 | 0.00 | 0.00 | 0.00 | 86 | 1016.1 |
| 20260508040025 | 46 | 360 | 0.0 | 0.0 | 0.00 | 0.00 | 0.00 | 86 | 1016.1 |
| 20260508035506 | 47 | 360 | 0.0 | 0.0 | 0.00 | 0.00 | 0.00 | 85 | 1016.1 |
| 20260508035006 | 47 | 360 | 0.0 | 0.0 | 0.00 | 0.00 | 0.00 | 85 | 1016.1 |
| 20260508034505 | 47 | 360 | 0.0 | 0.0 | 0.00 | 0.00 | 0.00 | 85 | 1016.1 |
| 20260508034003 | 47 | 360 | 0.0 | 0.0 | 0.00 | 0.00 | 0.00 | 84 | 1016.1 |
| 20260508033505 | 47 | 360 | 0.0 | 0.0 | 0.00 | 0.00 | 0.00 | 84 | 1016.1 |
| 20260508033004 | 47 | 360 | 0.0 | 0.0 | 0.00 | 0.00 | 0.00 | 83 | 1016.1 |
| 20260508032504 | 47 | 360 | 0.0 | 0.0 | 0.00 | 0.00 | 0.00 | 83 | 1016.2 |
| 20260508032006 | 47 | 360 | 0.0 | 0.0 | 0.00 | 0.00 | 0.00 | 83 | 1016.2 |
| 20260508031513 | 48 | 360 | 0.0 | 0.0 | 0.00 | 0.00 | 0.00 | 83 | 1016.3 |
| 20260508031006 | 48 | 360 | 0.0 | 0.0 | 0.00 | 0.00 | 0.00 | 83 | 1016.3 |
| 20260508030508 | 48 | 360 | 0.0 | 0.0 | 0.00 | 0.00 | 0.00 | 82 | 1016.3 |
| 20260508030024 | 48 | 360 | 0.0 | 1.7 | 0.00 | 0.00 | 0.00 | 82 | 1016.2 |
| 20260508025508 | 48 | 360 | 0.0 | 1.7 | 0.00 | 0.00 | 0.00 | 82 | 1016.2 |
| 20260508025005 | 48 | 360 | 0.0 | 0.0 | 0.00 | 0.00 | 0.00 | 83 | 1016.2 |
| 20260508024522 | 48 | 360 | 0.0 | 0.0 | 0.00 | 0.00 | 0.00 | 83 | 1016.3 |
| 20260508024008 | 48 | 360 | 0.0 | 0.0 | 0.00 | 0.00 | 0.00 | 83 | 1016.3 |
| 20260508023503 | 48 | 360 | 0.0 | 0.0 | 0.00 | 0.00 | 0.00 | 83 | 1016.2 |
| 20260508023007 | 48 | 360 | 0.0 | 0.0 | 0.00 | 0.00 | 0.00 | 83 | 1016.2 |
| 20260508022503 | 49 | 360 | 0.0 | 0.0 | 0.00 | 0.00 | 0.00 | 83 | 1016.2 |
| 20260508022007 | 49 | 360 | 0.0 | 0.0 | 0.00 | 0.00 | 0.00 | 83 | 1016.1 |
| 20260508021513 | 49 | 360 | 0.0 | 0.0 | 0.00 | 0.00 | 0.00 | 83 | 1016.2 |
| 20260508021004 | 49 | 360 | 0.0 | 0.0 | 0.00 | 0.00 | 0.00 | 82 | 1016.2 |
| 20260508020504 | 49 | 360 | 0.0 | 0.0 | 0.00 | 0.00 | 0.00 | 82 | 1016.1 |
| 20260508020023 | 49 | 360 | 0.0 | 0.0 | 0.00 | 0.00 | 0.00 | 82 | 1016.1 |
| 20260508015507 | 49 | 360 | 0.0 | 0.0 | 0.00 | 0.00 | 0.00 | 82 | 1016.1 |
| 20260508015007 | 49 | 360 | 0.0 | 0.0 | 0.00 | 0.00 | 0.00 | 82 | 1016.0 |
| 20260508014521 | 49 | 360 | 0.0 | 0.0 | 0.00 | 0.00 | 0.00 | 82 | 1016.1 |
| 20260508014008 | 49 | 360 | 0.0 | 0.0 | 0.00 | 0.00 | 0.00 | 83 | 1016.1 |
| 20260508013509 | 48 | 360 | 0.0 | 0.0 | 0.00 | 0.00 | 0.00 | 83 | 1016.1 |
| 20260508013024 | 48 | 360 | 0.0 | 0.0 | 0.00 | 0.00 | 0.00 | 83 | 1016.2 |
| 20260508012510 | 48 | 360 | 0.0 | 0.0 | 0.00 | 0.00 | 0.00 | 83 | 1016.2 |
| 20260508012004 | 49 | 360 | 0.0 | 0.0 | 0.00 | 0.00 | 0.00 | 83 | 1016.2 |
| 20260508011513 | 49 | 360 | 0.0 | 0.0 | 0.00 | 0.00 | 0.00 | 83 | 1016.3 |
| 20260508011003 | 49 | 360 | 0.0 | 0.0 | 0.00 | 0.00 | 0.00 | 83 | 1016.3 |
| 20260508010505 | 49 | 360 | 0.0 | 0.0 | 0.00 | 0.00 | 0.00 | 82 | 1016.3 |
| 20260508010012 | 49 | 360 | 0.0 | 0.0 | 0.00 | 0.00 | 0.00 | 82 | 1016.3 |
| 20260508005506 | 49 | 360 | 0.0 | 0.0 | 0.00 | 0.00 | 0.00 | 82 | 1016.3 |
| 20260508005011 | 49 | 360 | 0.0 | 0.0 | 0.00 | 0.00 | 0.00 | 81 | 1016.3 |
| 20260508004520 | 49 | 360 | 0.0 | 0.0 | 0.00 | 0.00 | 0.00 | 80 | 1016.3 |
| 20260508004007 | 50 | 360 | 0.0 | 0.0 | 0.00 | 0.00 | 0.00 | 80 | 1016.3 |
| 20260508003507 | 50 | 360 | 0.0 | 0.0 | 0.00 | 0.00 | 0.00 | 79 | 1016.4 |
| 20260508003021 | 50 | 360 | 0.0 | 0.0 | 0.00 | 0.00 | 0.00 | 80 | 1016.3 |
| 20260508002507 | 50 | 360 | 0.0 | 0.0 | 0.00 | 0.00 | 0.00 | 79 | 1016.3 |
| 20260508002010 | 50 | 360 | 0.0 | 0.0 | 0.00 | 0.00 | 0.00 | 77 | 1016.3 |
| 20260508001524 | 50 | 360 | 0.0 | 0.0 | 0.00 | 0.00 | 0.00 | 76 | 1016.3 |
| 20260508001004 | 50 | 360 | 0.0 | 1.7 | 0.00 | 0.00 | 0.00 | 76 | 1016.4 |
| 20260508000505 | 50 | 360 | 0.0 | 1.7 | 0.00 | 0.00 | 0.00 | 76 | 1016.4 |
| 20260508000012 | 50 | 360 | 0.0 | 0.0 | 0.00 | 0.00 | 0.00 | 76 | 1016.4 |
| 20260507235504 | 50 | 360 | 0.0 | 0.0 | 0.00 | 0.00 | 0.00 | 76 | 1016.4 |
| 20260507235008 | 50 | 360 | 0.0 | 0.0 | 0.00 | 0.00 | 0.00 | 76 | 1016.4 |
| 20260507234516 | 50 | 360 | 0.0 | 0.0 | 0.00 | 0.00 | 0.00 | 76 | 1016.4 |
| 20260507234007 | 50 | 360 | 0.0 | 0.0 | 0.00 | 0.00 | 0.00 | 76 | 1016.4 |
| 20260507233507 | 50 | 360 | 0.0 | 0.0 | 0.00 | 0.00 | 0.00 | 77 | 1016.4 |
| 20260507233039 | 51 | 360 | 0.0 | 0.0 | 0.00 | 0.00 | 0.00 | 76 | 1016.4 |
| 20260507232511 | 51 | 360 | 0.0 | 0.0 | 0.00 | 0.00 | 0.00 | 77 | 1016.4 |
| 20260507232009 | 51 | 360 | 0.0 | 0.0 | 0.00 | 0.00 | 0.00 | 76 | 1016.4 |
| 20260507231529 | 51 | 360 | 0.0 | 0.0 | 0.00 | 0.00 | 0.00 | 76 | 1016.3 |
| 20260507231008 | 51 | 360 | 0.0 | 0.0 | 0.00 | 0.00 | 0.00 | 75 | 1016.4 |
| 20260507230507 | 51 | 360 | 0.0 | 1.7 | 0.00 | 0.00 | 0.00 | 73 | 1016.3 |
| 20260507230026 | 51 | 360 | 0.0 | 1.7 | 0.00 | 0.00 | 0.00 | 73 | 1016.3 |
| 20260507225504 | 51 | 360 | 0.0 | 1.7 | 0.00 | 0.00 | 0.00 | 73 | 1016.3 |
| 20260507225007 | 51 | 360 | 0.0 | 1.7 | 0.00 | 0.00 | 0.00 | 73 | 1016.2 |
| 20260507224514 | 51 | 360 | 0.0 | 1.7 | 0.00 | 0.00 | 0.00 | 73 | 1016.3 |
| 20260507224008 | 51 | 360 | 0.0 | 1.7 | 0.00 | 0.00 | 0.00 | 73 | 1016.3 |
| 20260507223509 | 51 | 360 | 0.0 | 0.0 | 0.00 | 0.00 | 0.00 | 72 | 1016.4 |
| 20260507223019 | 51 | 360 | 0.0 | 0.0 | 0.00 | 0.00 | 0.00 | 72 | 1016.4 |
| 20260507222513 | 51 | 360 | 0.0 | 0.9 | 0.00 | 0.00 | 0.00 | 73 | 1016.4 |
| 20260507222007 | 51 | 360 | 0.0 | 0.9 | 0.00 | 0.00 | 0.00 | 73 | 1016.4 |
| 20260507221524 | 51 | 360 | 0.0 | 0.0 | 0.00 | 0.00 | 0.00 | 73 | 1016.4 |
| 20260507221003 | 51 | 360 | 0.0 | 0.0 | 0.00 | 0.00 | 0.00 | 72 | 1016.4 |
| 20260507220503 | 52 | 360 | 0.0 | 0.0 | 0.00 | 0.00 | 0.00 | 72 | 1016.4 |
| 20260507220007 | 52 | 360 | 0.0 | 0.0 | 0.00 | 0.00 | 0.00 | 71 | 1016.4 |
| 20260507215504 | 52 | 360 | 0.0 | 0.9 | 0.00 | 0.00 | 0.00 | 71 | 1016.3 |
| 20260507215004 | 52 | 360 | 0.0 | 0.9 | 0.00 | 0.00 | 0.00 | 71 | 1016.3 |
| 20260507214513 | 52 | 360 | 0.0 | 0.0 | 0.00 | 0.00 | 0.00 | 71 | 1016.4 |
| 20260507214005 | 52 | 360 | 0.0 | 0.0 | 0.00 | 0.00 | 0.00 | 70 | 1016.3 |
| 20260507213509 | 52 | 360 | 0.0 | 0.0 | 0.00 | 0.00 | 0.00 | 70 | 1016.4 |
| 20260507213021 | 52 | 360 | 0.0 | 0.0 | 0.00 | 0.00 | 0.00 | 69 | 1016.3 |
| 20260507212507 | 52 | 360 | 0.0 | 0.0 | 0.00 | 0.00 | 0.00 | 69 | 1016.3 |
| 20260507212009 | 53 | 184 | 0.0 | 0.0 | 0.00 | 0.00 | 0.00 | 68 | 1016.3 |
| 20260507211523 | 53 | 192 | 0.0 | 0.0 | 0.00 | 0.00 | 0.00 | 68 | 1016.2 |
| 20260507211007 | 53 | 198 | 0.0 | 0.0 | 0.00 | 0.00 | 0.00 | 68 | 1016.2 |
| 20260507210513 | 53 | 198 | 0.0 | 0.0 | 0.00 | 0.00 | 0.00 | 68 | 1016.2 |
| 20260507210006 | 53 | 192 | 0.0 | 1.7 | 0.00 | 0.00 | 0.00 | 67 | 1016.1 |
| 20260507205504 | 53 | 180 | 0.0 | 1.7 | 0.00 | 0.00 | 0.00 | 67 | 1016.1 |
| 20260507205004 | 53 | 134 | 0.0 | 1.7 | 0.00 | 0.00 | 0.00 | 67 | 1016.0 |
| 20260507204507 | 53 | 175 | 0.0 | 1.7 | 0.00 | 0.00 | 0.00 | 66 | 1016.0 |
| 20260507204004 | 53 | 174 | 0.0 | 1.7 | 0.00 | 0.00 | 0.00 | 66 | 1016.0 |
| 20260507203508 | 54 | 173 | 0.0 | 1.7 | 0.00 | 0.00 | 0.00 | 65 | 1016.0 |
| 20260507203014 | 54 | 180 | 0.0 | 1.7 | 0.00 | 0.00 | 0.00 | 65 | 1016.0 |
| 20260507202506 | 54 | 180 | 0.0 | 1.7 | 0.00 | 0.00 | 0.00 | 65 | 1016.0 |
| 20260507202010 | 54 | 181 | 0.0 | 0.9 | 0.00 | 0.00 | 0.00 | 64 | 1015.9 |
| 20260507201521 | 54 | 184 | 0.0 | 0.0 | 0.00 | 0.00 | 0.00 | 64 | 1015.9 |
| 20260507201007 | 54 | 202 | 0.0 | 1.7 | 0.00 | 0.00 | 0.00 | 64 | 1015.9 |
| 20260507200511 | 54 | 203 | 0.0 | 1.7 | 0.00 | 0.00 | 0.00 | 63 | 1015.8 |
| 20260507200023 | 54 | 209 | 0.0 | 1.7 | 0.00 | 0.00 | 0.00 | 63 | 1015.8 |
| 20260507195512 | 54 | 209 | 0.0 | 1.7 | 0.00 | 0.00 | 0.00 | 62 | 1015.7 |
| 20260507195003 | 55 | 221 | 0.0 | 1.7 | 0.00 | 0.00 | 0.00 | 61 | 1015.7 |
| 20260507194509 | 55 | 216 | 0.0 | 1.7 | 0.00 | 0.00 | 0.00 | 61 | 1015.7 |
| 20260507194007 | 55 | 215 | 0.9 | 1.7 | 0.00 | 0.00 | 0.00 | 61 | 1015.7 |
| 20260507193506 | 55 | 205 | 0.0 | 1.7 | 0.00 | 0.00 | 0.00 | 61 | 1015.6 |
| 20260507193015 | 55 | 194 | 0.0 | 1.7 | 0.00 | 0.00 | 0.00 | 60 | 1015.6 |
| 20260507192505 | 55 | 202 | 0.9 | 1.7 | 0.00 | 0.00 | 0.00 | 59 | 1015.6 |
| 20260507192006 | 56 | 190 | 0.0 | 3.5 | 0.00 | 0.00 | 0.00 | 59 | 1015.6 |
| 20260507191528 | 56 | 218 | 0.0 | 3.5 | 0.00 | 0.00 | 0.00 | 58 | 1015.6 |
| 20260507191005 | 56 | 214 | 0.9 | 3.5 | 0.00 | 0.00 | 0.00 | 58 | 1015.6 |
| 20260507190506 | 56 | 198 | 1.7 | 3.5 | 0.00 | 0.00 | 0.00 | 57 | 1015.6 |
| 20260507190023 | 56 | 202 | 0.0 | 1.7 | 0.00 | 0.00 | 0.00 | 57 | 1015.5 |
| 20260507185507 | 56 | 211 | 0.9 | 2.6 | 0.00 | 0.00 | 0.00 | 56 | 1015.5 |
| 20260507185012 | 56 | 212 | 0.0 | 2.6 | 0.00 | 0.00 | 0.00 | 56 | 1015.5 |
| 20260507184532 | 57 | 178 | 0.9 | 1.7 | 0.00 | 0.00 | 0.00 | 55 | 1015.4 |
| 20260507184010 | 57 | 205 | 0.0 | 3.5 | 0.00 | 0.00 | 0.00 | 54 | 1015.5 |
| 20260507183504 | 57 | 180 | 0.9 | 3.5 | 0.00 | 0.00 | 0.00 | 53 | 1015.5 |
| 20260507183022 | 57 | 220 | 0.9 | 3.5 | 0.00 | 0.00 | 0.00 | 53 | 1015.4 |
| 20260507182507 | 57 | 177 | 0.9 | 5.2 | 0.00 | 0.00 | 0.00 | 53 | 1015.3 |
| 20260507182007 | 57 | 239 | 1.7 | 5.2 | 0.00 | 0.00 | 0.00 | 51 | 1015.3 |
| 20260507181517 | 58 | 188 | 1.7 | 5.2 | 0.00 | 0.00 | 0.00 | 51 | 1015.3 |
| 20260507181007 | 58 | 191 | 0.0 | 5.2 | 0.00 | 0.00 | 0.00 | 52 | 1015.2 |
| 20260507180508 | 58 | 188 | 0.0 | 5.2 | 0.00 | 0.00 | 0.00 | 51 | 1015.1 |
| 20260507180029 | 58 | 172 | 1.7 | 6.1 | 0.00 | 0.00 | 0.00 | 52 | 1015.1 |
| 20260507175509 | 58 | 179 | 1.7 | 6.1 | 0.00 | 0.00 | 0.00 | 51 | 1015.1 |
| 20260507175007 | 58 | 223 | 1.7 | 4.3 | 0.00 | 0.00 | 0.00 | 50 | 1015.1 |
| 20260507174524 | 58 | 209 | 1.7 | 3.5 | 0.00 | 0.00 | 0.00 | 50 | 1015.1 |
| 20260507174008 | 59 | 213 | 1.7 | 5.2 | 0.00 | 0.00 | 0.00 | 48 | 1015.1 |
| 20260507173512 | 59 | 193 | 1.7 | 5.2 | 0.00 | 0.00 | 0.00 | 50 | 1015.1 |
| 20260507173035 | 59 | 142 | 0.9 | 3.5 | 0.00 | 0.00 | 0.00 | 49 | 1015.0 |
| 20260507172504 | 59 | 230 | 0.9 | 3.5 | 0.00 | 0.00 | 0.00 | 48 | 1015.0 |
| 20260507172004 | 59 | 139 | 1.7 | 5.2 | 0.00 | 0.00 | 0.00 | 48 | 1015.1 |
| 20260507171530 | 59 | 180 | 1.7 | 5.2 | 0.00 | 0.00 | 0.00 | 48 | 1015.0 |
| 20260507171007 | 59 | 190 | 1.7 | 3.5 | 0.00 | 0.00 | 0.00 | 47 | 1015.0 |
| 20260507170509 | 59 | 181 | 1.7 | 3.5 | 0.00 | 0.00 | 0.00 | 48 | 1015.0 |
| 20260507170016 | 59 | 155 | 0.9 | 3.5 | 0.00 | 0.00 | 0.00 | 48 | 1015.0 |
| 20260507165505 | 59 | 176 | 0.9 | 3.5 | 0.00 | 0.00 | 0.00 | 47 | 1015.0 |
| 20260507165007 | 60 | 201 | 1.7 | 3.5 | 0.00 | 0.00 | 0.00 | 46 | 1015.0 |
| 20260507164529 | 60 | 222 | 1.7 | 3.5 | 0.00 | 0.00 | 0.00 | 47 | 1015.0 |
| 20260507164010 | 60 | 175 | 0.9 | 4.3 | 0.00 | 0.00 | 0.00 | 47 | 1015.1 |
| 20260507163508 | 60 | 265 | 0.0 | 4.3 | 0.00 | 0.00 | 0.00 | 46 | 1015.1 |
| 20260507163024 | 60 | 160 | 0.9 | 6.1 | 0.00 | 0.00 | 0.00 | 47 | 1015.1 |
| 20260507162512 | 60 | 121 | 1.7 | 6.1 | 0.00 | 0.00 | 0.00 | 45 | 1015.1 |
| 20260507162011 | 60 | 171 | 0.0 | 5.2 | 0.00 | 0.00 | 0.00 | 46 | 1015.0 |
| 20260507161509 | 60 | 113 | 0.9 | 5.2 | 0.00 | 0.00 | 0.00 | 46 | 1015.1 |
| 20260507161002 | 61 | 151 | 0.9 | 4.3 | 0.00 | 0.00 | 0.00 | 46 | 1015.1 |
| 20260507160506 | 61 | 141 | 0.9 | 4.3 | 0.00 | 0.00 | 0.00 | 46 | 1015.1 |
| 20260507160014 | 61 | 152 | 0.9 | 5.2 | 0.00 | 0.00 | 0.00 | 45 | 1015.1 |
| 20260507155508 | 61 | 166 | 0.9 | 6.1 | 0.00 | 0.00 | 0.00 | 44 | 1015.1 |
| 20260507155007 | 61 | 172 | 3.5 | 6.1 | 0.00 | 0.00 | 0.00 | 44 | 1015.2 |
| 20260507154522 | 62 | 142 | 1.7 | 4.3 | 0.00 | 0.00 | 0.00 | 44 | 1015.1 |
| 20260507154012 | 62 | 173 | 1.7 | 7.0 | 0.00 | 0.00 | 0.00 | 43 | 1015.1 |
| 20260507153509 | 62 | 151 | 0.9 | 7.0 | 0.00 | 0.00 | 0.00 | 43 | 1015.1 |
| 20260507153027 | 63 | 156 | 1.7 | 7.0 | 0.00 | 0.00 | 0.00 | 42 | 1015.1 |
| 20260507152513 | 62 | 222 | 0.0 | 7.0 | 0.00 | 0.00 | 0.00 | 43 | 1015.2 |
| 20260507152010 | 62 | 142 | 2.6 | 6.1 | 0.00 | 0.00 | 0.00 | 43 | 1015.2 |
| 20260507151526 | 62 | 135 | 1.7 | 6.1 | 0.00 | 0.00 | 0.00 | 46 | 1015.3 |
| 20260507151007 | 62 | 88 | 1.7 | 6.1 | 0.00 | 0.00 | 0.00 | 44 | 1015.3 |
| 20260507150507 | 62 | 194 | 0.9 | 5.2 | 0.00 | 0.00 | 0.00 | 45 | 1015.3 |
| 20260507150012 | 62 | 209 | 0.9 | 5.2 | 0.00 | 0.00 | 0.00 | 43 | 1015.3 |
| 20260507145509 | 62 | 134 | 1.7 | 4.3 | 0.00 | 0.00 | 0.00 | 45 | 1015.3 |
| 20260507145007 | 62 | 125 | 0.9 | 3.5 | 0.00 | 0.00 | 0.00 | 43 | 1015.3 |
| 20260507144520 | 62 | 98 | 0.0 | 4.3 | 0.00 | 0.00 | 0.00 | 44 | 1015.3 |
| 20260507144006 | 62 | 134 | 1.7 | 5.2 | 0.00 | 0.00 | 0.00 | 46 | 1015.4 |
| 20260507143505 | 62 | 146 | 1.7 | 5.2 | 0.00 | 0.00 | 0.00 | 44 | 1015.4 |
| 20260507143023 | 62 | 136 | 0.9 | 3.5 | 0.00 | 0.00 | 0.00 | 45 | 1015.5 |
| 20260507142510 | 61 | 122 | 0.9 | 5.2 | 0.00 | 0.00 | 0.00 | 45 | 1015.5 |
| 20260507142012 | 61 | 144 | 1.7 | 7.8 | 0.00 | 0.00 | 0.00 | 43 | 1015.7 |
| 20260507141526 | 62 | 190 | 2.6 | 7.8 | 0.00 | 0.00 | 0.00 | 42 | 1015.7 |
| 20260507141007 | 62 | 110 | 0.0 | 1.7 | 0.00 | 0.00 | 0.00 | 42 | 1015.6 |
| 20260507140507 | 62 | 139 | 0.0 | 3.5 | 0.00 | 0.00 | 0.00 | 43 | 1015.7 |
| 20260507140028 | 62 | 196 | 0.9 | 3.5 | 0.00 | 0.00 | 0.00 | 42 | 1015.7 |
| 20260507135503 | 62 | 138 | 0.9 | 6.1 | 0.00 | 0.00 | 0.00 | 47 | 1015.8 |
| 20260507135008 | 61 | 184 | 3.5 | 6.1 | 0.00 | 0.00 | 0.00 | 47 | 1015.9 |
| 20260507134519 | 61 | 122 | 3.5 | 6.1 | 0.00 | 0.00 | 0.00 | 45 | 1015.8 |
| 20260507134006 | 61 | 171 | 0.9 | 2.6 | 0.00 | 0.00 | 0.00 | 47 | 1015.9 |
| 20260507133507 | 60 | 142 | 0.9 | 2.6 | 0.00 | 0.00 | 0.00 | 47 | 1015.9 |
| 20260507133022 | 60 | 28 | 0.9 | 2.6 | 0.00 | 0.00 | 0.00 | 46 | 1016.0 |
| 20260507132511 | 60 | 50 | 0.0 | 2.6 | 0.00 | 0.00 | 0.00 | 47 | 1016.0 |
| 20260507132009 | 60 | 126 | 1.7 | 5.2 | 0.00 | 0.00 | 0.00 | 48 | 1016.1 |
| 20260507131530 | 60 | 103 | 1.7 | 5.2 | 0.00 | 0.00 | 0.00 | 45 | 1016.0 |
| 20260507131003 | 60 | 145 | 1.7 | 5.2 | 0.00 | 0.00 | 0.00 | 48 | 1016.0 |
| 20260507130504 | 60 | 261 | 0.9 | 6.1 | 0.00 | 0.00 | 0.00 | 45 | 1016.0 |
| 20260507130011 | 61 | 98 | 2.6 | 6.1 | 0.00 | 0.00 | 0.00 | 45 | 1016.0 |
| 20260507125508 | 61 | 352 | 0.9 | 6.1 | 0.00 | 0.00 | 0.00 | 43 | 1016.0 |
| 20260507125004 | 61 | 170 | 1.7 | 5.2 | 0.00 | 0.00 | 0.00 | 44 | 1015.9 |
| 20260507124519 | 61 | 154 | 0.9 | 5.2 | 0.00 | 0.00 | 0.00 | 42 | 1016.0 |
| 20260507124008 | 62 | 18 | 0.9 | 7.0 | 0.00 | 0.00 | 0.00 | 42 | 1016.0 |
| 20260507123510 | 62 | 234 | 0.9 | 7.0 | 0.00 | 0.00 | 0.00 | 43 | 1016.0 |
| 20260507123033 | 62 | 188 | 1.7 | 7.8 | 0.00 | 0.00 | 0.00 | 44 | 1016.0 |
| 20260507122509 | 63 | 127 | 2.6 | 7.8 | 0.00 | 0.00 | 0.00 | 41 | 1016.0 |
| 20260507122010 | 63 | 111 | 1.7 | 7.0 | 0.00 | 0.00 | 0.00 | 43 | 1016.1 |
| 20260507121524 | 63 | 161 | 1.7 | 7.0 | 0.00 | 0.00 | 0.00 | 44 | 1016.1 |
| 20260507121008 | 63 | 184 | 0.9 | 7.0 | 0.00 | 0.00 | 0.00 | 44 | 1016.1 |
| 20260507120511 | 63 | 102 | 0.9 | 7.8 | 0.00 | 0.00 | 0.00 | 42 | 1016.2 |
| 20260507120020 | 63 | 111 | 2.6 | 7.8 | 0.00 | 0.00 | 0.00 | 43 | 1016.2 |
| 20260507115503 | 63 | 161 | 1.7 | 6.1 | 0.00 | 0.00 | 0.00 | 42 | 1016.3 |
| 20260507115006 | 62 | 176 | 3.5 | 7.8 | 0.00 | 0.00 | 0.00 | 45 | 1016.3 |
| 20260507114512 | 61 | 53 | 2.6 | 7.8 | 0.00 | 0.00 | 0.00 | 45 | 1016.2 |
| 20260507114008 | 61 | 161 | 1.7 | 7.8 | 0.00 | 0.00 | 0.00 | 42 | 1016.3 |
| 20260507113511 | 62 | 118 | 2.6 | 7.8 | 0.00 | 0.00 | 0.00 | 42 | 1016.3 |
| 20260507113035 | 61 | 182 | 0.9 | 5.2 | 0.00 | 0.00 | 0.00 | 46 | 1016.2 |
| 20260507112515 | 60 | 192 | 2.6 | 5.2 | 0.00 | 0.00 | 0.00 | 45 | 1016.3 |
| 20260507112014 | 60 | 53 | 0.9 | 8.7 | 0.00 | 0.00 | 0.00 | 45 | 1016.3 |
| 20260507111522 | 60 | 200 | 1.7 | 8.7 | 0.00 | 0.00 | 0.00 | 45 | 1016.4 |
| 20260507111009 | 60 | 167 | 1.7 | 6.1 | 0.00 | 0.00 | 0.00 | 48 | 1016.3 |
| 20260507110510 | 60 | 44 | 2.6 | 6.1 | 0.00 | 0.00 | 0.00 | 48 | 1016.4 |
| 20260507110030 | 60 | 123 | 1.7 | 4.3 | 0.00 | 0.00 | 0.00 | 51 | 1016.4 |
| 20260507105506 | 60 | 352 | 1.7 | 6.1 | 0.00 | 0.00 | 0.00 | 48 | 1016.5 |
| 20260507105003 | 60 | 121 | 2.6 | 6.1 | 0.00 | 0.00 | 0.00 | 47 | 1016.5 |
| 20260507104515 | 60 | 156 | 0.9 | 5.2 | 0.00 | 0.00 | 0.00 | 45 | 1016.5 |
| 20260507104008 | 60 | 142 | 2.6 | 6.1 | 0.00 | 0.00 | 0.00 | 47 | 1016.6 |
| 20260507103505 | 59 | 145 | 2.6 | 6.1 | 0.00 | 0.00 | 0.00 | 49 | 1016.7 |
| 20260507103016 | 59 | 75 | 0.9 | 5.2 | 0.00 | 0.00 | 0.00 | 48 | 1016.7 |
| 20260507102507 | 59 | 77 | 2.6 | 5.2 | 0.00 | 0.00 | 0.00 | 53 | 1016.7 |
| 20260507102008 | 59 | 161 | 2.6 | 5.2 | 0.00 | 0.00 | 0.00 | 58 | 1016.7 |
| 20260507101520 | 59 | 136 | 2.6 | 6.1 | 0.00 | 0.00 | 0.00 | 54 | 1016.7 |
| 20260507101011 | 59 | 148 | 1.7 | 7.0 | 0.00 | 0.00 | 0.00 | 59 | 1016.7 |
| 20260507100507 | 59 | 153 | 2.6 | 7.0 | 0.00 | 0.00 | 0.00 | 54 | 1016.7 |
| 20260507100034 | 58 | 206 | 2.6 | 7.0 | 0.00 | 0.00 | 0.00 | 56 | 1016.8 |
| 20260507095510 | 57 | 167 | 2.6 | 6.1 | 0.00 | 0.00 | 0.00 | 60 | 1016.7 |
| 20260507095007 | 57 | 146 | 0.9 | 6.1 | 0.00 | 0.00 | 0.00 | 61 | 1016.6 |
| 20260507094524 | 57 | 185 | 1.7 | 6.1 | 0.00 | 0.00 | 0.00 | 60 | 1016.6 |
| 20260507094003 | 57 | 235 | 3.5 | 6.1 | 0.00 | 0.00 | 0.00 | 62 | 1016.6 |
| 20260507093504 | 56 | 155 | 2.6 | 5.2 | 0.00 | 0.00 | 0.00 | 63 | 1016.6 |
| 20260507093012 | 56 | 135 | 2.6 | 5.2 | 0.00 | 0.00 | 0.00 | 63 | 1016.7 |
| 20260507092506 | 55 | 167 | 0.9 | 5.2 | 0.00 | 0.00 | 0.00 | 63 | 1016.7 |
| 20260507092008 | 55 | 159 | 0.9 | 5.2 | 0.00 | 0.00 | 0.00 | 65 | 1016.7 |
| 20260507091522 | 54 | 102 | 1.7 | 6.1 | 0.00 | 0.00 | 0.00 | 67 | 1016.7 |
| 20260507091008 | 54 | 155 | 2.6 | 6.1 | 0.00 | 0.00 | 0.00 | 68 | 1016.8 |
| 20260507090508 | 54 | 115 | 1.7 | 6.1 | 0.00 | 0.00 | 0.00 | 69 | 1016.7 |
| 20260507090023 | 53 | 157 | 2.6 | 6.1 | 0.00 | 0.00 | 0.00 | 70 | 1016.8 |
| 20260507085508 | 53 | 94 | 1.7 | 7.0 | 0.00 | 0.00 | 0.00 | 69 | 1016.7 |
| 20260507085007 | 53 | 125 | 2.6 | 7.0 | 0.00 | 0.00 | 0.00 | 71 | 1016.7 |
| 20260507084528 | 53 | 129 | 0.9 | 7.0 | 0.00 | 0.00 | 0.00 | 71 | 1016.8 |
| 20260507084012 | 53 | 130 | 1.7 | 7.0 | 0.00 | 0.00 | 0.00 | 72 | 1016.8 |
| 20260507083512 | 53 | 84 | 2.6 | 5.2 | 0.00 | 0.00 | 0.00 | 72 | 1016.8 |
| 20260507083026 | 52 | 192 | 1.7 | 5.2 | 0.00 | 0.00 | 0.00 | 74 | 1016.8 |
| 20260507082508 | 52 | 80 | 1.7 | 6.1 | 0.00 | 0.00 | 0.00 | 74 | 1016.8 |
| 20260507082009 | 52 | 88 | 1.7 | 6.1 | 0.00 | 0.00 | 0.00 | 74 | 1016.7 |
| 20260507081518 | 51 | 138 | 2.6 | 6.1 | 0.00 | 0.00 | 0.00 | 74 | 1016.8 |
| 20260507081007 | 51 | 159 | 1.7 | 4.3 | 0.00 | 0.00 | 0.00 | 74 | 1016.7 |
| 20260507080507 | 51 | 155 | 0.9 | 4.3 | 0.00 | 0.00 | 0.00 | 75 | 1016.8 |
| 20260507080020 | 51 | 184 | 0.9 | 3.5 | 0.00 | 0.00 | 0.00 | 75 | 1016.7 |
| 20260507075510 | 50 | 105 | 1.7 | 3.5 | 0.00 | 0.00 | 0.00 | 75 | 1016.7 |
| 20260507075007 | 50 | 101 | 0.9 | 3.5 | 0.00 | 0.00 | 0.00 | 76 | 1016.7 |
| 20260507074531 | 50 | 360 | 0.9 | 3.5 | 0.00 | 0.00 | 0.00 | 77 | 1016.7 |
| 20260507074007 | 49 | 360 | 0.9 | 2.6 | 0.00 | 0.00 | 0.00 | 78 | 1016.7 |
| 20260507073508 | 49 | 107 | 0.9 | 4.3 | 0.00 | 0.00 | 0.00 | 79 | 1016.7 |
| 20260507073024 | 49 | 88 | 0.9 | 4.3 | 0.00 | 0.00 | 0.00 | 79 | 1016.7 |
| 20260507072508 | 48 | 158 | 1.7 | 3.5 | 0.00 | 0.00 | 0.00 | 79 | 1016.7 |
| 20260507072009 | 48 | 134 | 1.7 | 5.2 | 0.00 | 0.00 | 0.00 | 79 | 1016.6 |
| 20260507071517 | 48 | 111 | 0.9 | 5.2 | 0.00 | 0.00 | 0.00 | 80 | 1016.6 |
| 20260507071007 | 48 | 143 | 1.7 | 3.5 | 0.00 | 0.00 | 0.00 | 81 | 1016.6 |
| 20260507070508 | 47 | 126 | 0.9 | 3.5 | 0.00 | 0.00 | 0.00 | 82 | 1016.5 |
| 20260507070018 | 47 | 110 | 0.9 | 4.3 | 0.00 | 0.00 | 0.00 | 82 | 1016.5 |
| 20260507065513 | 47 | 96 | 1.7 | 6.1 | 0.00 | 0.00 | 0.00 | 82 | 1016.5 |